[[{"header":{"parameterUnit":"m.s-1","parameterCategory":1,"la1":30.2991,"la2":30.254,"lo1":-89.0895,"lo2":-89.0444,"dy":0.0017,"dx":0.0017,"nx":28,"ny":28,"refTime":"2024-04-13T03:00:00:Z","depth":0,"parameterNumber":2,"parameterNumberName":"U-component_of_WINDS"},"data":[0,0,0,0,0,0,0,0,0,0,0,0,0,0,0,0,0,0,0,0,0,0,0,0,0,0,0,0,0,0,0,0,0,0,0,0,0,0,0,0,0,0,0,0,0,0,0,0,0,0,0,0,0,0,0,0,0,0,1.0854,1.0855,0,1.0936,1.0937,1.0938,1.0952,1.0952,1.0951,1.095,1.1039,1.1042,1.1045,0,0,0,0,0,0,0,0,0,0,0,0,0,1.0717,1.0719,1.0854,1.0855,1.0856,1.0936,1.0937,1.0938,1.0953,1.0952,1.0951,1.095,1.1038,1.1042,1.1045,0,0,0,0,0,0,0,0,0,0,0,0,0,1.0785,1.072,1.0854,1.0873,1.0875,1.0936,1.0937,1.0939,1.0953,1.0952,1.0951,1.095,1.1037,1.1041,1.1046,1.1095,0,0,1.106,1.1061,0,0,0,0,0,0,0,0,1.0781,1.079,1.0869,1.0871,1.0874,1.0933,1.0921,1.0991,1.0953,1.0923,1.095,1.0949,1.1005,1.1012,1.103,1.1099,1.1103,1.106,1.1063,1.1065,1.1066,0,0,0,0,0,0,0,1.0777,1.0787,1.0887,1.087,1.0873,1.0879,1.0888,1.0935,1.0969,1.0926,1.0927,1.0936,1.1006,1.1025,1.1032,1.1104,1.106,1.1064,1.1067,1.1068,1.1223,1.1224,0,0,0,0,0,0,1.0768,1.0783,1.0884,1.0889,1.0824,1.0883,1.0892,1.0915,1.0969,1.0976,1.0937,1.0937,1.1018,1.1027,1.1035,1.11,1.1065,1.1069,1.1071,1.1222,1.1223,1.1225,0,0,0,0,0,0,1.0765,1.0777,1.0881,1.0836,1.085,1.0886,1.0912,1.0917,1.0937,1.0977,1.0984,1.095,1.1018,1.1029,1.1081,1.1103,1.1071,1.1075,1.122,1.1222,1.1224,1.1226,0,0,0,0,0,0,1.0761,1.0775,1.0792,1.0837,1.0852,1.0922,1.0913,1.092,1.0944,1.0944,1.0991,1.0998,1.1018,1.1074,1.1085,1.1108,1.1078,1.1218,1.1221,1.1224,1.1225,1.1228,1.1232,0,0,0,0,0,1.0756,1.0789,1.0793,1.0805,1.0874,1.0923,1.0933,1.0954,1.0945,1.0964,1.0991,1.0996,1.1098,1.1079,1.1092,1.1117,1.1217,1.122,1.1223,1.1223,1.1228,1.1231,0,0,0,0,0,0,1.0747,1.0795,1.08,1.0848,1.0882,1.0926,1.095,1.0957,1.0994,1.0993,1.1019,1.103,1.1081,1.1104,1.1082,1.117,1.1157,1.1163,1.1153,1.1158,1.1161,1.1155,1.1082,0,0,0,0,0,1.0751,1.0785,1.0826,1.0865,1.0882,1.0913,1.0935,1.0949,1.0985,1.1,1.103,1.1066,1.1107,1.1133,1.1173,1.1228,1.1241,1.1252,1.1255,1.1258,1.1263,1.1299,1.1306,1.1235,1.1235,1.1235,0,0,1.0759,1.079,1.081,1.0865,1.0892,1.093,1.0925,1.0964,1.0993,1.1006,1.1057,1.1081,1.1124,1.1179,1.1205,1.12,1.1286,1.1262,1.1264,1.1268,1.1303,1.131,1.1316,1.1237,1.1237,1.1237,0,0,1.0794,1.0819,1.0856,1.0884,1.0926,1.0947,1.0956,1.1,1.1016,1.1068,1.108,1.1116,1.1184,1.1216,1.1241,1.1292,1.13,1.1304,1.1323,1.1358,1.1363,1.1368,1.139,1.1397,1.1309,1.1309,1.1309,0,1.0799,1.0854,1.0874,1.0914,1.094,1.0953,1.0993,1.102,1.1073,1.1092,1.1085,1.1174,1.1204,1.1268,1.1281,1.13,1.1314,1.1299,1.136,1.1366,1.1371,1.1392,1.14,1.131,1.131,1.131,1.1309,0,1.0861,1.0899,1.0925,1.0975,1.1004,1.1043,1.1073,1.11,1.1112,1.1135,1.1191,1.1227,1.1276,1.1292,1.1304,1.136,1.1356,1.1354,1.1343,1.1378,1.1399,1.1407,1.131,1.131,1.131,1.131,0,0,1.089,1.0954,1.0963,1.0988,1.1037,1.1069,1.1111,1.1158,1.1183,1.122,1.1259,1.1318,1.1318,1.1347,1.1363,1.1393,1.1437,1.1388,1.139,1.1399,1.1506,1.1508,1.1517,1.1442,1.1443,1.1444,1.1504,0,1.0933,1.1006,1.1028,1.1091,1.113,1.1145,1.1183,1.1219,1.1242,1.1281,1.1308,1.1351,1.1346,1.1364,1.1394,1.1424,1.1459,1.142,1.1482,1.1483,1.1472,1.1527,1.1529,1.1583,1.1511,1.1513,1.1514,0,1.0991,1.103,1.1097,1.1145,1.1162,1.1195,1.1242,1.1277,1.132,1.1336,1.137,1.1384,1.1433,1.1418,1.1489,1.1462,1.1489,1.1508,1.1511,1.1519,1.1502,1.154,1.16,1.1609,1.1526,1.1525,1.1524,0,1.101,1.1079,1.1129,1.1149,1.1205,1.1229,1.1254,1.1296,1.1325,1.1367,1.1387,1.1435,1.1462,1.15,1.1529,1.1515,1.1598,1.1585,1.1616,1.1615,1.1634,1.1632,1.1702,1.1647,1.1647,1.1646,1.1646,0,1.1056,1.1097,1.1139,1.1169,1.1218,1.1244,1.1293,1.1319,1.1356,1.1396,1.1412,1.1449,1.1483,1.1526,1.1549,1.1607,1.1618,1.1635,1.1641,1.1635,1.1633,1.1654,1.1652,1.1649,1.1648,1.1648,1.1647,0,1.1085,1.1114,1.117,1.122,1.1233,1.1267,1.1311,1.1344,1.1369,1.1419,1.1433,1.1473,1.1525,1.1558,1.1623,1.1639,1.1703,1.1706,1.1688,1.1692,1.1722,1.172,1.1809,1.1824,1.1756,1.1757,1.1757,0,1.1113,1.1146,1.1199,1.1226,1.1251,1.1294,1.1324,1.1353,1.1384,1.1438,1.1465,1.1518,1.1561,1.1644,1.1682,1.1733,1.174,1.1768,1.1748,1.1742,1.1745,1.1744,1.1749,1.1772,1.1772,1.1773,1.1773,0,1.1162,1.1175,1.1216,1.1264,1.1299,1.1339,1.1378,1.14,1.1436,1.1471,1.1524,1.1558,1.1626,1.168,1.1736,1.1765,1.1777,1.1779,1.179,1.1785,1.1774,1.1784,1.17,1.1777,1.1777,1.1776,1.1776,1.1776,1.1193,1.1225,1.1268,1.1315,1.1348,1.1386,1.142,1.1451,1.1495,1.1552,1.1567,1.1623,1.1671,1.1747,1.1778,1.1825,1.1821,1.1836,1.184,1.1844,1.1846,1.1765,1.1835,1.1835,1.1835,1.1835,1.1835,0,1.1245,1.1275,1.1318,1.1373,1.1411,1.1417,1.1463,1.1495,1.1544,1.1587,1.163,1.1694,1.1747,1.179,1.1846,1.1876,1.1884,1.189,1.189,1.1897,1.1844,1.1831,1.1884,1.1884,1.1884,1.1884,1.1884,1.1884,1.1277,1.1331,1.1351,1.1424,1.1454,1.1509,1.1535,1.1571,1.1606,1.1675,1.172,1.1747,1.1791,1.1851,1.1903,1.1914,1.1936,1.1942,1.1955,1.1905,1.19,1.1895,1.1883,1.1946,1.1946,1.2005,1.2005,1.2006]},{"header":{"parameterUnit":"m.s-1","parameterCategory":1,"la1":30.2991,"la2":30.254,"lo1":-89.0895,"lo2":-89.0444,"dy":0.0017,"dx":0.0017,"nx":28,"ny":28,"refTime":"2024-04-13T03:00:00:Z","depth":0,"parameterNumber":3,"parameterNumberName":"V-component_of_WINDS"},"data":[0,0,0,0,0,0,0,0,0,0,0,0,0,0,0,0,0,0,0,0,0,0,0,0,0,0,0,0,0,0,0,0,0,0,0,0,0,0,0,0,0,0,0,0,0,0,0,0,0,0,0,0,0,0,0,0,0,0,-0.9243,-0.9242,0,-0.9154,-0.9153,-0.9152,-0.9146,-0.9147,-0.9148,-0.9149,-0.9052,-0.9049,-0.9045,0,0,0,0,0,0,0,0,0,0,0,0,0,-0.9401,-0.9398,-0.9243,-0.9242,-0.9241,-0.9154,-0.9153,-0.9152,-0.9146,-0.9148,-0.9149,-0.915,-0.9053,-0.9049,-0.9045,0,0,0,0,0,0,0,0,0,0,0,0,0,-0.9324,-0.9397,-0.9244,-0.9228,-0.9226,-0.9155,-0.9153,-0.9152,-0.9146,-0.9148,-0.9149,-0.9151,-0.9055,-0.905,-0.9044,-0.8981,0,0,-0.9028,-0.9026,0,0,0,0,0,0,0,0,-0.9328,-0.9318,-0.9231,-0.9229,-0.9226,-0.9163,-0.9173,-0.9094,-0.9146,-0.9176,-0.9149,-0.9151,-0.9087,-0.908,-0.9059,-0.8976,-0.8972,-0.9028,-0.9024,-0.9022,-0.9021,0,0,0,0,0,0,0,-0.9334,-0.9322,-0.9208,-0.923,-0.9227,-0.9223,-0.9214,-0.9158,-0.9124,-0.9174,-0.9173,-0.9163,-0.9086,-0.9064,-0.9057,-0.8971,-0.9028,-0.9023,-0.902,-0.9018,-0.8825,-0.8823,0,0,0,0,0,0,-0.9343,-0.9326,-0.9211,-0.9205,-0.9282,-0.9219,-0.9209,-0.9182,-0.9125,-0.9118,-0.9162,-0.9163,-0.9073,-0.9063,-0.9054,-0.8971,-0.9022,-0.9017,-0.9014,-0.8827,-0.8825,-0.8823,0,0,0,0,0,0,-0.9346,-0.9333,-0.9214,-0.9266,-0.925,-0.9215,-0.9184,-0.9179,-0.9157,-0.9116,-0.9109,-0.9146,-0.9074,-0.9061,-0.8998,-0.8968,-0.9015,-0.901,-0.8829,-0.8826,-0.8824,-0.8808,0,0,0,0,0,0,-0.9351,-0.9334,-0.9312,-0.9265,-0.9248,-0.9163,-0.9183,-0.9176,-0.9149,-0.915,-0.9099,-0.9092,-0.9074,-0.9006,-0.8993,-0.8961,-0.9006,-0.8832,-0.8828,-0.8825,-0.8811,-0.8805,-0.88,0,0,0,0,0,-0.9357,-0.9311,-0.9311,-0.9297,-0.9219,-0.9161,-0.9151,-0.9132,-0.9147,-0.9122,-0.9094,-0.9094,-0.8974,-0.9,-0.8985,-0.8951,-0.8833,-0.8829,-0.8825,-0.8814,-0.8807,-0.88,0,0,0,0,0,0,-0.9353,-0.9305,-0.9304,-0.9242,-0.9206,-0.9161,-0.9129,-0.9126,-0.9084,-0.9086,-0.9063,-0.9051,-0.8988,-0.8964,-0.8993,-0.8884,-0.8905,-0.8897,-0.8902,-0.8894,-0.8889,-0.8894,-0.9001,0,0,0,0,0,-0.9346,-0.9305,-0.9264,-0.9213,-0.9195,-0.9165,-0.914,-0.9128,-0.9089,-0.9073,-0.9041,-0.9001,-0.8954,-0.8923,-0.8878,-0.8809,-0.8795,-0.8778,-0.8772,-0.8768,-0.876,-0.8716,-0.8707,-0.8808,-0.8808,-0.8808,0,0,-0.9329,-0.9297,-0.9273,-0.9212,-0.9182,-0.9137,-0.9152,-0.9106,-0.907,-0.9065,-0.9003,-0.8978,-0.8932,-0.8864,-0.8833,-0.8842,-0.873,-0.8762,-0.8759,-0.8754,-0.8711,-0.8701,-0.8693,-0.8805,-0.8806,-0.8806,0,0,-0.9275,-0.9249,-0.9202,-0.9172,-0.9127,-0.9107,-0.9096,-0.905,-0.9033,-0.8971,-0.8965,-0.8922,-0.8843,-0.8808,-0.8781,-0.871,-0.8705,-0.8696,-0.8665,-0.8623,-0.8614,-0.8607,-0.8577,-0.8567,-0.8689,-0.8689,-0.8689,0,-0.9259,-0.9193,-0.9177,-0.9129,-0.91,-0.9095,-0.9044,-0.9015,-0.8958,-0.8936,-0.8948,-0.8846,-0.8814,-0.8736,-0.8718,-0.8698,-0.868,-0.87,-0.8618,-0.861,-0.8603,-0.8573,-0.8563,-0.8688,-0.8688,-0.8688,-0.8689,0,-0.9173,-0.9128,-0.9094,-0.9039,-0.9007,-0.8958,-0.8931,-0.89,-0.8891,-0.8868,-0.8802,-0.8764,-0.8709,-0.869,-0.8681,-0.8609,-0.8615,-0.8623,-0.8643,-0.8592,-0.8564,-0.8553,-0.8686,-0.8687,-0.8687,-0.8687,0,0,-0.9114,-0.9049,-0.9037,-0.901,-0.8959,-0.8922,-0.8871,-0.8818,-0.8789,-0.8749,-0.8702,-0.8634,-0.864,-0.8608,-0.8595,-0.8558,-0.8497,-0.8569,-0.8567,-0.8553,-0.8409,-0.84,-0.8388,-0.8496,-0.8494,-0.8492,-0.8411,0,-0.905,-0.8962,-0.8944,-0.8865,-0.882,-0.8813,-0.8767,-0.8729,-0.8706,-0.8662,-0.8636,-0.8586,-0.86,-0.858,-0.8543,-0.8513,-0.8468,-0.8519,-0.8447,-0.8445,-0.8455,-0.8374,-0.8366,-0.8291,-0.8401,-0.8399,-0.8397,0,-0.8965,-0.8922,-0.8839,-0.8791,-0.8771,-0.8731,-0.8678,-0.8638,-0.8593,-0.8578,-0.8542,-0.8532,-0.8474,-0.8499,-0.8416,-0.8451,-0.8421,-0.8401,-0.8398,-0.8387,-0.8415,-0.8356,-0.8268,-0.8254,-0.8381,-0.8382,-0.8383,0,-0.8924,-0.8846,-0.8785,-0.8763,-0.8706,-0.8677,-0.8652,-0.8609,-0.8576,-0.853,-0.8508,-0.8455,-0.8425,-0.8383,-0.8357,-0.8379,-0.8274,-0.8299,-0.8256,-0.8256,-0.8231,-0.8232,-0.8131,-0.822,-0.822,-0.822,-0.822,0,-0.8852,-0.88,-0.8765,-0.8727,-0.8667,-0.8646,-0.8587,-0.8561,-0.8522,-0.8476,-0.8467,-0.8424,-0.8395,-0.8345,-0.8325,-0.8256,-0.8244,-0.8227,-0.8221,-0.8225,-0.8226,-0.8202,-0.8204,-0.8217,-0.8218,-0.8218,-0.8219,0,-0.8795,-0.877,-0.8702,-0.8654,-0.864,-0.8597,-0.8554,-0.8515,-0.8492,-0.8433,-0.8418,-0.838,-0.8322,-0.8293,-0.822,-0.8206,-0.8126,-0.8127,-0.8142,-0.8138,-0.8095,-0.8098,-0.7971,-0.7951,-0.8057,-0.8057,-0.8056,0,-0.8749,-0.8709,-0.8656,-0.8625,-0.8599,-0.855,-0.8516,-0.8494,-0.8459,-0.8402,-0.8368,-0.831,-0.8261,-0.8167,-0.8131,-0.8074,-0.8069,-0.8029,-0.806,-0.8064,-0.8062,-0.8063,-0.8056,-0.8022,-0.8021,-0.802,-0.8019,0,-0.8668,-0.8657,-0.8611,-0.8559,-0.852,-0.8477,-0.8435,-0.841,-0.838,-0.834,-0.8281,-0.8243,-0.8168,-0.8108,-0.8047,-0.8018,-0.801,-0.801,-0.7996,-0.7997,-0.8005,-0.7995,-0.8121,-0.8012,-0.8013,-0.8014,-0.8014,-0.8014,-0.8612,-0.8573,-0.8529,-0.8476,-0.8442,-0.8403,-0.8362,-0.8333,-0.8284,-0.8221,-0.8211,-0.8146,-0.8097,-0.8016,-0.7984,-0.793,-0.7938,-0.792,-0.7914,-0.7909,-0.7903,-0.8018,-0.792,-0.792,-0.792,-0.792,-0.792,0,-0.8526,-0.8497,-0.8449,-0.839,-0.8347,-0.8348,-0.83,-0.8263,-0.8207,-0.8164,-0.8116,-0.8044,-0.7985,-0.7944,-0.7883,-0.7847,-0.7842,-0.7831,-0.7831,-0.7822,-0.7902,-0.7918,-0.7836,-0.7836,-0.7836,-0.7836,-0.7836,-0.7836,-0.8476,-0.8409,-0.8393,-0.8308,-0.8278,-0.8216,-0.8188,-0.8149,-0.8114,-0.8035,-0.7986,-0.796,-0.7916,-0.7851,-0.7794,-0.7783,-0.7759,-0.7747,-0.7735,-0.7809,-0.7818,-0.7826,-0.784,-0.7743,-0.7743,-0.7659,-0.7658,-0.7657]}]]